Time,TemperatureF,DewpointF,PressureIn,WindDirection,WindDirectionDegrees,WindSpeedMPH,WindSpeedGustMPH,Humidity,HourlyPrecipIn,Conditions,Clouds,dailyrainin,SolarRadiationWatts/m^2,SoftwareType,DateUTC
2013-10-29 00:11:00,50.0,47.0,-100.00,WSW,249,11.0,21.0,88,0.00,,,0.01,0.000000,,2013-10-29 07:11:00,
2013-10-29 00:24:00,50.0,47.0,-100.00,WSW,249,11.0,21.0,88,0.00,,,0.01,0.000000,,2013-10-29 07:24:00,
2013-10-29 00:31:00,50.0,47.0,-100.00,WSW,249,11.0,21.0,88,0.00,,,0.01,0.000000,,2013-10-29 07:31:00,
2013-10-29 00:43:00,50.0,47.0,-100.00,WSW,249,11.0,21.0,88,0.00,,,0.01,0.000000,,2013-10-29 07:43:00,
2013-10-29 01:13:00,50.0,47.0,-100.00,WSW,247,9.0,15.0,89,0.00,,,0.01,0.000000,,2013-10-29 08:13:00,
2013-10-29 01:24:00,50.0,47.0,-100.00,WSW,247,9.0,15.0,89,0.00,,,0.01,0.000000,,2013-10-29 08:24:00,
2013-10-29 01:31:00,50.0,47.0,-100.00,WSW,247,9.0,15.0,89,0.00,,,0.01,0.000000,,2013-10-29 08:31:00,
2013-10-29 01:42:00,50.0,47.0,-100.00,WSW,247,9.0,15.0,89,0.00,,,0.01,0.000000,,2013-10-29 08:42:00,
2013-10-29 02:21:00,49.0,44.0,-100.00,WSW,253,12.0,15.0,83,0.00,,,0.01,1.000000,,2013-10-29 09:21:00,
2013-10-29 02:33:00,49.0,44.0,-100.00,WSW,253,12.0,15.0,83,0.00,,,0.01,1.000000,,2013-10-29 09:33:00,
2013-10-29 02:42:00,49.0,44.0,-100.00,WSW,253,12.0,15.0,83,0.00,,,0.01,1.000000,,2013-10-29 09:42:00,
2013-10-29 03:13:00,49.0,44.0,-100.00,SW,230,7.0,15.0,82,0.00,,,0.01,0.000000,,2013-10-29 10:13:00,
2013-10-29 03:23:00,49.0,44.0,-100.00,SW,230,7.0,15.0,82,0.00,,,0.01,0.000000,,2013-10-29 10:23:00,
2013-10-29 03:33:00,49.0,44.0,-100.00,SW,230,7.0,15.0,82,0.00,,,0.01,0.000000,,2013-10-29 10:33:00,
2013-10-29 03:42:00,49.0,44.0,-100.00,SW,230,7.0,15.0,82,0.00,,,0.01,0.000000,,2013-10-29 10:42:00,
2013-10-29 04:12:00,48.0,45.0,-100.00,SW,220,3.0,9.0,91,0.00,,,0.00,0.000000,,2013-10-29 11:12:00,
2013-10-29 04:22:00,48.0,45.0,-100.00,SW,220,3.0,9.0,91,0.00,,,0.00,0.000000,,2013-10-29 11:22:00,
2013-10-29 04:33:00,48.0,45.0,-100.00,SW,220,3.0,9.0,91,0.00,,,0.00,0.000000,,2013-10-29 11:33:00,
2013-10-29 04:42:00,48.0,45.0,-100.00,SW,220,3.0,9.0,91,0.00,,,0.00,0.000000,,2013-10-29 11:42:00,
2013-10-29 05:11:00,47.0,43.0,-100.00,WSW,251,5.0,12.0,85,0.00,,,0.00,1.000000,,2013-10-29 12:11:00,
2013-10-29 05:21:00,47.0,43.0,-100.00,WSW,251,5.0,12.0,85,0.00,,,0.00,1.000000,,2013-10-29 12:21:00,
2013-10-29 05:32:00,47.0,43.0,-100.00,WSW,251,5.0,12.0,85,0.00,,,0.00,1.000000,,2013-10-29 12:32:00,
2013-10-29 05:42:00,47.0,43.0,-100.00,WSW,251,5.0,12.0,85,0.00,,,0.00,1.000000,,2013-10-29 12:42:00,
2013-10-29 06:11:00,48.0,44.0,-100.00,SW,234,8.0,11.0,85,0.00,,,0.00,0.000000,,2013-10-29 13:11:00,
2013-10-29 06:21:00,48.0,44.0,-100.00,SW,234,8.0,11.0,85,0.00,,,0.00,0.000000,,2013-10-29 13:21:00,
2013-10-29 06:32:00,48.0,44.0,-100.00,SW,234,8.0,11.0,85,0.00,,,0.00,0.000000,,2013-10-29 13:32:00,
2013-10-29 06:42:00,48.0,44.0,-100.00,SW,234,8.0,11.0,85,0.00,,,0.00,0.000000,,2013-10-29 13:42:00,
2013-10-29 07:21:00,47.0,45.0,-100.00,ESE,114,4.0,10.0,93,0.00,,,0.00,0.000000,,2013-10-29 14:21:00,
2013-10-29 07:32:00,47.0,45.0,-100.00,ESE,114,4.0,10.0,93,0.00,,,0.00,0.000000,,2013-10-29 14:32:00,
2013-10-29 07:42:00,47.0,45.0,-100.00,ESE,114,4.0,10.0,93,0.00,,,0.00,0.000000,,2013-10-29 14:42:00,
2013-10-29 08:11:00,47.0,45.0,-100.00,ESE,110,6.0,8.0,92,0.00,,,0.00,15.000000,,2013-10-29 15:11:00,
2013-10-29 08:21:00,47.0,45.0,-100.00,ESE,110,6.0,8.0,92,0.00,,,0.00,15.000000,,2013-10-29 15:21:00,
2013-10-29 08:33:00,47.0,45.0,-100.00,ESE,110,6.0,8.0,92,0.00,,,0.00,15.000000,,2013-10-29 15:33:00,
2013-10-29 08:44:00,47.0,45.0,-100.00,ESE,110,6.0,8.0,92,0.00,,,0.00,15.000000,,2013-10-29 15:44:00,
2013-10-29 09:12:00,48.0,45.0,-100.00,East,88,8.0,10.0,90,0.00,,,0.00,164.000000,,2013-10-29 16:12:00,
2013-10-29 09:23:00,48.0,45.0,-100.00,East,88,8.0,10.0,90,0.00,,,0.00,164.000000,,2013-10-29 16:23:00,
2013-10-29 09:33:00,48.0,45.0,-100.00,East,88,8.0,10.0,90,0.00,,,0.00,164.000000,,2013-10-29 16:33:00,
2013-10-29 09:43:00,48.0,45.0,-100.00,East,88,8.0,10.0,90,0.00,,,0.00,164.000000,,2013-10-29 16:43:00,
2013-10-29 10:22:00,50.0,44.0,-100.00,ENE,67,5.0,10.0,80,0.00,,,0.00,345.000000,,2013-10-29 17:22:00,
2013-10-29 10:33:00,50.0,44.0,-100.00,ENE,67,5.0,10.0,80,0.00,,,0.00,345.000000,,2013-10-29 17:33:00,
2013-10-29 10:42:00,50.0,44.0,-100.00,ENE,67,5.0,10.0,80,0.00,,,0.00,345.000000,,2013-10-29 17:42:00,
2013-10-29 11:21:00,54.0,44.0,-100.00,West,278,4.0,6.0,68,0.00,,,0.00,475.000000,,2013-10-29 18:21:00,
2013-10-29 11:32:00,54.0,44.0,-100.00,West,278,4.0,6.0,68,0.00,,,0.00,475.000000,,2013-10-29 18:32:00,
2013-10-29 11:42:00,54.0,44.0,-100.00,West,278,4.0,6.0,68,0.00,,,0.00,475.000000,,2013-10-29 18:42:00,
2013-10-29 12:21:00,57.0,44.0,-100.00,WNW,284,8.0,12.0,61,0.00,,,0.00,618.000000,,2013-10-29 19:21:00,
2013-10-29 12:32:00,57.0,44.0,-100.00,WNW,284,8.0,12.0,61,0.00,,,0.00,618.000000,,2013-10-29 19:32:00,
2013-10-29 12:42:00,57.0,44.0,-100.00,WNW,284,8.0,12.0,61,0.00,,,0.00,618.000000,,2013-10-29 19:42:00,
2013-10-29 13:22:00,59.0,41.0,-100.00,West,279,12.0,21.0,51,0.00,,,0.00,434.000000,,2013-10-29 20:22:00,
2013-10-29 13:32:00,59.0,41.0,-100.00,West,279,12.0,21.0,51,0.00,,,0.00,434.000000,,2013-10-29 20:32:00,
2013-10-29 13:42:00,59.0,41.0,-100.00,West,279,12.0,21.0,51,0.00,,,0.00,434.000000,,2013-10-29 20:42:00,
2013-10-29 14:22:00,56.0,40.0,-100.00,West,269,15.0,26.0,55,0.00,,,0.00,319.000000,,2013-10-29 21:22:00,
2013-10-29 14:34:00,56.0,40.0,-100.00,West,269,15.0,26.0,55,0.00,,,0.00,319.000000,,2013-10-29 21:34:00,
2013-10-29 14:43:00,56.0,40.0,-100.00,West,269,15.0,26.0,55,0.00,,,0.00,319.000000,,2013-10-29 21:43:00,
2013-10-29 15:13:00,55.0,41.0,-100.00,WSW,249,19.0,27.0,60,0.00,,,0.00,206.000000,,2013-10-29 22:13:00,
2013-10-29 15:23:00,55.0,41.0,-100.00,WSW,249,19.0,27.0,60,0.00,,,0.00,206.000000,,2013-10-29 22:23:00,
2013-10-29 15:33:00,55.0,41.0,-100.00,WSW,249,19.0,27.0,60,0.00,,,0.00,206.000000,,2013-10-29 22:33:00,
2013-10-29 15:43:00,55.0,41.0,-100.00,WSW,249,19.0,27.0,60,0.00,,,0.00,206.000000,,2013-10-29 22:43:00,
2013-10-29 16:21:00,57.0,41.0,-100.00,WSW,257,17.0,26.0,55,0.00,,,0.00,356.000000,,2013-10-29 23:21:00,
2013-10-29 16:33:00,57.0,41.0,-100.00,WSW,257,17.0,26.0,55,0.00,,,0.00,356.000000,,2013-10-29 23:33:00,
2013-10-29 16:42:00,57.0,41.0,-100.00,WSW,257,17.0,26.0,55,0.00,,,0.00,356.000000,,2013-10-29 23:42:00,
2013-10-29 17:21:00,55.0,41.0,-100.00,SW,236,18.0,25.0,60,0.00,,,0.00,213.000000,,2013-10-30 00:21:00,
2013-10-29 17:32:00,55.0,41.0,-100.00,SW,236,18.0,25.0,60,0.00,,,0.00,213.000000,,2013-10-30 00:32:00,
2013-10-29 17:42:00,55.0,41.0,-100.00,SW,236,18.0,25.0,60,0.00,,,0.00,213.000000,,2013-10-30 00:42:00,
2013-10-29 18:11:00,54.0,43.0,-100.00,WSW,252,15.0,26.0,66,0.00,,,0.00,54.000000,,2013-10-30 01:11:00,
2013-10-29 18:22:00,54.0,43.0,-100.00,WSW,252,15.0,26.0,66,0.00,,,0.00,54.000000,,2013-10-30 01:22:00,
2013-10-29 18:31:00,54.0,43.0,-100.00,WSW,252,15.0,26.0,66,0.00,,,0.00,54.000000,,2013-10-30 01:31:00,
2013-10-29 18:42:00,54.0,43.0,-100.00,WSW,252,15.0,26.0,66,0.00,,,0.00,54.000000,,2013-10-30 01:42:00,
2013-10-29 19:11:00,52.0,43.0,-100.00,WSW,238,11.0,23.0,70,0.00,,,0.00,3.000000,,2013-10-30 02:11:00,
2013-10-29 19:21:00,52.0,43.0,-100.00,WSW,238,11.0,23.0,70,0.00,,,0.00,3.000000,,2013-10-30 02:21:00,
2013-10-29 19:32:00,52.0,43.0,-100.00,WSW,238,11.0,23.0,70,0.00,,,0.00,3.000000,,2013-10-30 02:32:00,
2013-10-29 19:42:00,52.0,43.0,-100.00,WSW,238,11.0,23.0,70,0.00,,,0.00,3.000000,,2013-10-30 02:42:00,
2013-10-29 20:11:00,52.0,44.0,-100.00,WSW,249,9.0,21.0,73,0.00,,,0.00,0.000000,,2013-10-30 03:11:00,
2013-10-29 20:21:00,52.0,44.0,-100.00,WSW,249,9.0,21.0,73,0.00,,,0.00,0.000000,,2013-10-30 03:21:00,
2013-10-29 20:34:00,52.0,44.0,-100.00,WSW,249,9.0,21.0,73,0.00,,,0.00,0.000000,,2013-10-30 03:34:00,
2013-10-29 20:44:00,52.0,44.0,-100.00,WSW,249,9.0,21.0,73,0.00,,,0.00,0.000000,,2013-10-30 03:44:00,
2013-10-29 21:13:00,51.0,44.0,-100.00,WSW,242,4.0,9.0,78,0.00,,,-99.99,0.000000,,2013-10-30 04:13:00,
2013-10-29 21:24:00,51.0,44.0,-100.00,WSW,242,4.0,9.0,78,0.00,,,-99.99,0.000000,,2013-10-30 04:24:00,
2013-10-29 21:34:00,51.0,44.0,-100.00,WSW,242,4.0,9.0,78,0.00,,,-99.99,0.000000,,2013-10-30 04:34:00,
2013-10-29 21:44:00,51.0,44.0,-100.00,WSW,242,4.0,9.0,78,0.00,,,-99.99,0.000000,,2013-10-30 04:44:00,
2013-10-29 22:13:00,51.0,45.0,-100.00,SW,231,5.0,9.0,79,0.00,,,-99.99,0.000000,,2013-10-30 05:13:00,
2013-10-29 22:22:00,51.0,45.0,-100.00,SW,231,5.0,9.0,79,0.00,,,-99.99,0.000000,,2013-10-30 05:22:00,
2013-10-29 22:34:00,51.0,45.0,-100.00,SW,231,5.0,9.0,79,0.00,,,-99.99,0.000000,,2013-10-30 05:34:00,
2013-10-29 22:43:00,51.0,45.0,-100.00,SW,231,5.0,9.0,79,0.00,,,-99.99,0.000000,,2013-10-30 05:43:00,
2013-10-29 23:22:00,51.0,46.0,-100.00,ESE,110,3.0,7.0,82,0.00,,,0.00,1.000000,,2013-10-30 06:22:00,
2013-10-29 23:32:00,51.0,46.0,-100.00,ESE,110,3.0,7.0,82,0.00,,,0.00,1.000000,,2013-10-30 06:32:00,
2013-10-29 23:42:00,51.0,46.0,-100.00,ESE,110,3.0,7.0,82,0.00,,,0.00,1.000000,,2013-10-30 06:42:00,